{"data":{"norad_id":61708,"intl_designator":"2024-196B","name":"STARLINK-32402","alt_names":[],"object_type":"PAYLOAD","status":"ACTIVE","operator":null,"country":"US","launch_date":"2024-10-30","launch_site_code":"AFETR","launch_vehicle":null,"mission":null,"orbit_class":"UNKNOWN","rcs_meters":null,"size_class":null,"mass_kg":null,"dimensions":null,"purposes":["comms"],"wikipedia_slug":null,"has_3d_model":false,"image_url":null,"decayed_at":null,"tle_current":{"epoch":"2026-09-20T05:24:42.539904Z","epoch_age_seconds":212284,"freshness":"STALE","line1":"1 61708U 24196B   26263.22549236  .00000028  00000+0  11969-4 0  9995","line2":"2 61708  53.1597 274.7198 0001446  85.1064 275.0103 15.34388710106983","mean_motion":15.3438871,"eccentricity":0.0001446,"inclination_deg":53.1597,"raan_deg":274.7198,"arg_perigee_deg":85.1064,"mean_anomaly_deg":275.0103,"bstar":1.1969e-5,"rev_number":10698,"period_min":93.848448611174,"perigee_km":461.74760632112,"apogee_km":463.72598702312,"semimajor_km":6840.8737966721,"source":"CELESTRAK","updated_at":"2026-09-22T09:00:49.409924Z"}}}